カタログに戻る

THORAD AGENA D DEB

運用中LEO
NORAD 17658·DEBRIS·🇺🇸 United States

打ち上げ Sep 30, 1969 から Vandenberg Space Force Base

Loading…

次のパス (今後24時間)

TLE

最新Source: Space-Track

元期: Sep 13, 2026, 20:09 UTC

1 17658U 69082KU  26256.83990142  .00000278  00000-0  22757-3 0  9992
2 17658  70.3561 282.3722 0055492 178.9678 355.5348 13.98153222583519

AllMySatでTHORAD AGENA D DEBをリアルタイム追跡

Download on the App Store